Date String (YYYY-MM-DD hh:mm:ss) UTC,Instrument flags,Ambient pressure (hPa),Sample flow (lpm),Bypass flow (lpm),Sample temperature (°C),Ambient temperature (°C),ASC tube jacket temperature (°C),LED temperature (°C),Box temperature (°C),Sample RH (%),Span deviation,Mass concentration (μg/m³),Mass concentration (μg/m³),Mass concentration (μg/m³)
DateTimeUTC,F1_M11,P_M11,Q1_M11,Q2_M11,T1_M11,T2_M11,T3_M11,T4_M11,T5_M11,U1_M11,ZSPAN_M11,X0_M11,X2_M11,X1_M11
2021-12-26 07:00:00,,0815.9,4.99,0.00,22.6,22.0,00.0,31.5,24.3,08.8,0000.0,0003.55,0001.37,0001.14
2021-12-26 07:01:00,,0815.9,5.02,0.00,22.6,21.9,00.0,31.5,24.2,08.9,0000.0,0003.54,0001.36,0001.12
2021-12-26 07:02:00,,0816.0,5.00,0.00,22.5,21.9,00.0,31.5,24.2,09.0,0000.0,0003.53,0001.35,0001.11
2021-12-26 07:03:00,,0816.0,4.99,0.00,22.5,21.9,00.0,31.5,24.2,09.0,0000.0,0003.43,0001.31,0001.10
2021-12-26 07:04:00,,0816.0,5.00,0.00,22.5,21.8,00.0,31.5,24.2,08.9,0000.0,0002.74,0001.29,0001.08
2021-12-26 07:05:00,,0815.9,5.00,0.00,22.5,21.8,00.0,31.5,24.2,08.7,0000.0,0002.58,0001.32,0001.07
2021-12-26 07:06:00,,0815.6,5.00,0.00,22.5,21.8,00.0,31.5,24.2,08.7,0000.0,0002.63,0001.32,0001.05
2021-12-26 07:07:00,,0815.4,5.00,0.00,22.5,21.8,00.0,31.5,24.2,08.7,0000.0,0002.10,0001.29,0001.04
2021-12-26 07:08:00,,0815.4,5.03,0.00,22.5,21.8,00.0,31.5,24.2,08.4,0000.0,0001.75,0001.21,0001.03
2021-12-26 07:09:00,,0815.3,5.00,0.00,22.5,21.8,00.0,31.5,24.2,08.3,0000.0,0002.12,0001.19,0001.01
2021-12-26 07:10:00,,0815.3,5.01,0.00,22.5,21.7,00.0,31.5,24.2,08.2,0000.0,0002.26,0001.17,0000.99
2021-12-26 07:11:00,,0815.3,5.00,0.00,22.5,21.7,00.0,31.5,24.1,08.2,0000.0,0002.27,0001.16,0000.98
2021-12-26 07:12:00,,0815.3,4.99,0.00,22.5,21.7,00.0,31.5,24.1,08.2,0000.0,0002.29,0001.16,0000.98
2021-12-26 07:13:00,,0815.2,5.00,0.00,22.4,21.7,00.0,31.5,24.1,08.3,0000.0,0002.36,0001.17,0000.97
2021-12-26 07:14:00,,0815.2,4.99,0.00,22.4,21.7,00.0,31.5,24.1,08.3,0000.0,0002.38,0001.17,0000.96
2021-12-26 07:15:00,,0815.3,5.00,0.00,22.4,21.7,00.0,31.4,24.0,08.3,0000.0,0002.35,0001.15,0000.96
2021-12-26 07:16:00,,0815.2,5.00,0.00,22.4,21.7,00.0,31.4,24.1,08.3,0000.0,0002.13,0001.10,0000.94
2021-12-26 07:17:00,,0815.2,4.99,0.00,22.4,21.7,00.0,31.4,24.1,08.3,0000.0,0002.00,0001.06,0000.93
2021-12-26 07:18:00,,0815.2,5.00,0.00,22.4,21.6,00.0,31.4,24.0,08.3,0000.0,0001.99,0001.05,0000.92
2021-12-26 07:19:00,,0815.1,5.00,0.00,22.4,21.6,00.0,31.4,24.0,08.5,0000.0,0001.98,0001.04,0000.93
2021-12-26 07:20:00,,0815.1,5.00,0.00,22.4,21.6,00.0,31.4,24.0,08.7,0000.0,0001.57,0001.04,0000.93
2021-12-26 07:21:00,,0815.0,5.00,0.00,22.4,21.6,00.0,31.4,24.0,08.7,0000.0,0001.40,0001.05,0000.94
2021-12-26 07:22:00,,0814.9,5.00,0.00,22.4,21.6,00.0,31.4,24.0,08.7,0000.0,0001.36,0001.03,0000.93
2021-12-26 07:23:00,,0814.9,5.00,0.00,22.4,21.6,00.0,31.4,24.0,08.7,0000.0,0001.27,0001.01,0000.93
2021-12-26 07:24:00,,0814.9,5.01,0.00,22.3,21.5,00.0,31.4,24.0,08.8,0000.0,0001.15,0000.96,0000.91
2021-12-26 07:25:00,,0814.9,4.98,0.00,22.3,21.5,00.0,31.4,24.0,08.7,0000.0,0001.16,0000.96,0000.91
2021-12-26 07:26:00,,0814.9,5.00,0.00,22.3,21.5,00.0,31.4,24.0,08.7,0000.0,0001.23,0000.98,0000.90
2021-12-26 07:27:00,,0814.9,5.01,0.00,22.3,21.7,00.0,31.4,24.0,08.6,0000.0,0001.24,0000.99,0000.89
2021-12-26 07:28:00,,0814.9,5.00,0.00,22.4,22.4,00.0,31.4,24.3,08.5,0000.0,0001.25,0000.99,0000.89
2021-12-26 07:29:00,,0814.9,5.00,0.00,22.6,23.1,00.0,31.5,24.5,08.5,0000.0,0001.30,0001.01,0000.89
2021-12-26 07:30:00,,0814.8,5.00,0.00,22.7,23.1,00.0,31.5,24.6,08.4,0000.0,0001.37,0001.00,0000.87
2021-12-26 07:31:00,,0814.8,4.98,0.00,22.7,22.9,00.0,31.5,24.6,08.5,0000.0,0001.35,0000.98,0000.86
2021-12-26 07:32:00,,0815.1,5.01,0.00,22.7,22.7,00.0,31.5,24.5,08.8,0000.0,0001.34,0000.97,0000.86
2021-12-26 07:33:00,,0814.9,5.00,0.00,22.7,22.6,00.0,31.5,24.5,09.0,0000.0,0001.34,0000.97,0000.86
2021-12-26 07:34:00,,0815.1,5.01,0.00,22.7,22.4,00.0,31.6,24.4,09.0,0000.0,0001.41,0000.99,0000.86
2021-12-26 07:35:00,,0814.9,4.99,0.00,22.7,22.3,00.0,31.6,24.4,09.1,0000.0,0001.99,0001.02,0000.88
2021-12-26 07:36:00,,0814.8,5.01,0.00,22.7,22.2,00.0,31.6,24.4,09.2,0000.0,0001.94,0001.00,0000.87
2021-12-26 07:37:00,,0814.9,4.99,0.00,22.7,22.2,00.0,31.6,24.4,09.3,0000.0,0001.85,0000.97,0000.86
2021-12-26 07:38:00,,0814.7,5.00,0.00,22.6,22.1,00.0,31.6,24.3,09.5,0000.0,0001.89,0000.98,0000.87
2021-12-26 07:39:00,,0815.0,5.00,0.00,22.6,22.1,00.0,31.6,24.3,09.7,0000.0,0001.90,0000.98,0000.87
2021-12-26 07:40:00,,0815.1,5.00,0.00,22.6,22.0,00.0,31.6,24.3,09.8,0000.0,0001.92,0000.99,0000.88
2021-12-26 07:41:00,,0815.0,5.01,0.00,22.6,22.0,00.0,31.6,24.3,09.8,0000.0,0001.96,0001.04,0000.90
2021-12-26 07:42:00,,0815.0,4.99,0.00,22.6,21.9,00.0,31.6,24.3,09.8,0000.0,0001.99,0001.05,0000.91
2021-12-26 07:43:00,,0814.9,5.01,0.00,22.6,21.9,00.0,31.6,24.3,09.8,0000.0,0002.01,0001.06,0000.91
2021-12-26 07:44:00,,0815.1,4.99,0.00,22.6,21.9,00.0,31.6,24.2,09.7,0000.0,0002.09,0001.11,0000.92
2021-12-26 07:45:00,,0815.1,4.99,0.00,22.6,21.9,00.0,31.6,24.2,09.7,0000.0,0002.15,0001.14,0000.92
2021-12-26 07:46:00,,0815.1,5.01,0.00,22.6,21.8,00.0,31.6,24.3,09.8,0000.0,0001.61,0001.14,0000.93
2021-12-26 07:47:00,,0815.0,4.99,0.00,22.6,21.8,00.0,31.6,24.2,09.7,0000.0,0001.66,0001.17,0000.95
2021-12-26 07:48:00,,0815.0,5.01,0.00,22.6,21.8,00.0,31.6,24.2,09.7,0000.0,0001.71,0001.19,0000.96
2021-12-26 07:49:00,,0815.1,4.99,0.00,22.6,21.8,00.0,31.6,24.2,09.7,0000.0,0001.82,0001.23,0000.96
2021-12-26 07:50:00,,0815.1,5.00,0.00,22.5,21.8,00.0,31.5,24.2,09.7,0000.0,0002.07,0001.27,0000.97
2021-12-26 07:51:00,,0815.2,5.02,0.00,22.5,21.8,00.0,31.5,24.2,09.6,0000.0,0002.43,0001.25,0000.96
2021-12-26 07:52:00,,0815.1,4.99,0.00,22.5,21.8,00.0,31.5,24.2,09.5,0000.0,0002.32,0001.21,0000.96
2021-12-26 07:53:00,,0815.2,5.01,0.00,22.5,21.8,00.0,31.5,24.2,09.3,0000.0,0002.28,0001.20,0000.95
2021-12-26 07:54:00,,0815.1,4.99,0.00,22.5,21.8,00.0,31.5,24.2,09.2,0000.0,0002.25,0001.18,0000.94
2021-12-26 07:55:00,,0815.2,5.02,0.00,22.5,21.8,00.0,31.5,24.2,09.0,0000.0,0002.45,0001.14,0000.93
2021-12-26 07:56:00,,0814.9,5.00,0.00,22.5,21.7,00.0,31.5,24.2,09.2,0000.0,0002.50,0001.09,0000.92
2021-12-26 07:57:00,,0815.0,4.99,0.00,22.5,21.7,00.0,31.5,24.2,09.2,0000.0,0002.60,0001.08,0000.91
2021-12-26 07:58:00,,0815.1,5.02,0.00,22.5,21.7,00.0,31.5,24.2,09.2,0000.0,0002.54,0001.06,0000.90
2021-12-26 07:59:00,,0814.9,4.99,0.00,22.5,21.7,00.0,31.5,24.2,08.8,0000.0,0002.50,0001.04,0000.90
